Wind_Speed
42 41 40 39 40 41 41 41 39 39 39 40 39 39 40 41 40 39 38 37 36 35 33 33 32 31 30 30 29 28 27 27 27 27 27 26 26 26
44 43 42 41 42 42 42 42 41 40 40 40 41 41 42 42 41 40 39 39 37 35 34 32 32 31 31 30 29 29 28 27 26 26 26 26 26 25
45 45 43 42 42 43 43 43 42 41 41 41 41 42 43 43 43 42 41 40 38 36 35 33 32 32 31 30 29 29 28 27 27 26 26 26 25 25
45 45 45 44 44 43 43 43 44 43 42 42 43 43 43 43 44 43 42 40 39 38 36 35 33 32 31 30 30 29 28 27 26 26 25 25 25 25
45 46 46 46 45 45 45 45 44 44 44 44 44 44 45 45 45 44 43 42 40 39 38 36 35 34 33 32 30 29 28 27 26 26 25 25 25 25
44 45 46 46 46 46 47 47 47 46 46 45 45 46 46 47 46 45 45 44 43 41 40 38 37 35 34 33 32 30 29 28 27 25 25 25 25 25
42 43 45 46 47 48 48 49 50 49 48 48 47 48 48 48 48 46 46 45 45 43 41 39 38 37 35 34 33 32 31 29 27 26 25 25 24 24
40 42 45 46 47 49 49 50 51 50 51 50 49 47 49 48 48 48 48 47 45 44 43 41 40 38 37 36 35 34 32 31 29 28 27 25 24 24
38 41 44 46 47 48 49 50 51 51 52 52 52 50 50 50 49 49 48 48 47 46 45 43 42 41 39 38 37 36 35 34 32 31 29 27 26 24
34 37 41 43 47 49 49 50 50 52 52 53 54 53 53 53 52 50 50 50 50 50 48 46 44 43 42 40 39 37 36 35 34 33 31 29 28 26
30 33 36 40 43 47 48 49 50 52 53 53 54 55 55 54 54 53 52 51 50 51 50 49 47 45 44 43 42 40 38 37 35 34 33 32 30 29
27 30 33 36 40 43 45 47 49 50 52 53 54 55 56 55 56 55 54 52 51 51 50 50 50 48 46 45 44 42 41 39 38 36 35 34 33 32
23 26 29 32 34 38 41 43 46 48 50 52 54 54 54 55 56 56 55 54 53 51 51 50 51 50 48 47 46 45 43 42 41 39 38 36 35 34
19 23 26 28 30 33 36 39 42 45 48 49 51 52 53 53 54 56 56 54 54 52 51 51 51 51 50 49 48 47 46 45 43 42 41 39 38 36
13 17 21 24 26 29 32 35 38 42 44 47 49 51 52 53 53 54 55 55 54 53 53 52 51 51 51 51 49 48 47 47 45 44 43 41 40 38
9 12 16 19 22 26 28 31 34 38 41 43 46 48 50 51 51 52 54 54 54 54 53 53 52 51 51 51 50 49 49 48 47 46 45 44 42 40
6 8 12 15 19 22 24 27 29 33 37 40 43 46 47 49 50 51 52 53 53 53 53 52 52 51 51 50 49 49 49 48 47 46 45 44 43 42
6 6 9 12 16 19 21 23 26 28 32 36 39 43 45 46 47 48 50 50 51 52 52 52 51 51 51 50 49 48 48 48 48 47 46 45 44 43
5 5 7 9 12 15 18 21 24 26 29 31 35 38 41 44 45 46 48 49 50 50 51 51 50 49 49 49 48 48 47 47 47 47 46 46 45 44
5 5 5 7 9 12 15 18 21 24 26 29 32 35 37 40 42 44 46 47 49 49 49 50 50 49 48 49 49 49 48 47 47 46 45 45 44 43
7 4 4 5 7 10 12 15 18 21 24 27 29 31 34 36 39 41 43 45 47 48 49 49 49 48 47 47 48 49 48 46 46 45 45 44 43 43
7 5 5 4 5 7 9 12 15 18 21 24 27 29 32 33 35 38 40 42 44 46 47 48 48 47 46 46 46 46 46 46 45 45 44 44 43 43
7 6 5 4 4 5 6 8 11 13 16 19 23 25 28 31 32 35 36 38 40 43 44 46 46 47 47 46 45 45 45 44 44 44 44 44 43 41
Wind_Direction
251 249 246 243 241 238 235 232 230 230 229 225 223 222 220 219 219 218 218 218 217 218 219 221 223 224 226 226 227 228 229 231 233 235 237 238 238 238
249 248 246 243 240 238 236 232 230 230 227 225 223 221 218 217 217 216 216 217 217 218 219 219 221 222 224 225 226 227 228 230 232 234 235 237 237 235
247 245 244 242 239 236 234 232 230 228 226 224 222 220 218 216 216 215 216 216 216 218 219 220 220 221 223 223 224 225 228 230 231 233 235 235 234 233
246 243 242 241 239 236 233 230 229 228 224 223 221 219 218 216 215 214 214 215 216 217 218 220 220 221 222 223 224 224 226 228 229 231 231 231 231 232
245 243 241 239 237 235 233 230 229 226 223 222 220 219 217 216 215 214 214 215 216 217 218 220 220 221 221 222 223 223 224 225 226 228 229 230 230 231
244 241 238 236 235 233 231 228 226 225 224 222 220 219 217 216 216 215 215 217 217 218 219 220 221 221 221 222 222 223 223 223 224 225 228 229 230 232
243 240 237 235 233 231 231 229 226 225 224 223 221 219 217 217 216 215 216 216 218 218 218 219 221 221 220 221 222 223 223 223 224 225 228 230 232 233
243 239 236 234 233 231 230 229 227 226 223 222 220 219 217 217 216 216 216 216 217 218 218 219 220 220 220 221 221 222 223 224 225 227 229 232 233 233
243 240 238 235 232 230 229 228 227 226 223 223 221 220 217 217 217 217 216 216 217 218 219 220 221 221 220 220 222 222 224 226 227 229 230 232 233 234
244 241 238 235 232 230 228 227 228 227 224 223 222 221 219 217 216 218 218 217 218 218 220 221 221 221 221 221 222 223 224 226 228 230 231 232 234 236
245 241 237 234 232 231 229 228 228 227 225 224 222 221 221 219 217 217 218 219 220 221 221 221 222 223 223 223 223 225 226 227 229 230 231 233 235 238
245 241 237 235 232 231 230 229 228 228 226 226 223 222 222 222 220 219 220 219 220 221 222 223 224 224 225 225 226 226 227 229 230 231 233 234 237 240
246 241 237 234 232 230 229 229 229 229 227 226 225 224 225 225 223 221 222 222 222 223 224 224 225 226 226 226 228 229 229 230 231 233 234 236 237 240
248 241 237 234 232 230 228 228 228 228 228 227 225 224 225 226 226 225 224 224 223 223 224 225 226 227 227 228 228 230 231 232 233 235 236 237 239 241
249 239 232 230 229 227 227 228 228 228 228 228 227 226 226 226 226 227 227 226 226 225 225 225 227 227 228 229 230 230 231 232 234 235 236 238 239 242
254 238 230 225 226 226 227 229 229 228 228 228 228 227 227 227 227 227 228 227 228 227 227 228 228 228 228 229 231 231 231 232 234 236 237 239 240 242
270 247 234 228 225 224 226 227 228 228 228 228 228 227 227 227 227 227 228 228 229 229 228 229 229 229 229 230 231 232 232 233 234 236 238 239 241 243
288 256 239 232 228 226 226 225 226 227 228 229 228 227 227 228 228 228 227 227 228 229 229 229 230 230 230 231 232 233 234 235 235 236 237 239 240 242
315 278 254 240 231 230 231 229 228 228 227 227 228 228 227 227 227 226 226 226 226 227 228 228 229 230 230 231 232 234 234 235 236 237 237 239 241 242
328 304 275 252 241 237 234 232 230 229 228 227 227 227 228 227 226 226 226 225 225 226 226 228 228 230 230 231 231 231 233 234 235 236 238 240 241 243
348 331 300 270 253 245 238 235 233 232 230 228 226 226 226 227 227 226 225 224 224 225 226 227 228 228 230 231 231 231 231 232 233 236 238 240 242 244
355 345 330 308 277 256 245 240 236 234 231 227 225 224 224 225 225 224 223 224 223 224 225 225 226 227 228 229 230 230 231 231 233 235 237 239 242 245
358 353 341 325 309 286 259 243 235 232 228 225 224 223 222 222 223 223 221 221 221 221 222 224 225 226 226 228 228 229 231 232 233 234 236 239 241 243
Height
5734 5737 5741 5744 5748 5752 5756 5761 5766 5771 5776 5780 5785 5791 5796 5802 5808 5814 5819 5825 5830 5835 5840 5845 5849 5853 5857 5861 5865 5868 5871 5875 5878 5881 5883 5886 5888 5891
5722 5725 5729 5733 5737 5741 5745 5750 5756 5761 5766 5772 5777 5782 5787 5794 5800 5806 5812 5817 5823 5828 5833 5838 5842 5847 5851 5855 5858 5862 5866 5869 5872 5875 5878 5880 5883 5885
5708 5712 5716 5721 5725 5729 5734 5739 5745 5751 5756 5762 5767 5772 5779 5785 5791 5798 5804 5810 5815 5821 5826 5831 5836 5840 5844 5848 5852 5856 5860 5863 5866 5869 5872 5875 5877 5880
5694 5699 5703 5708 5713 5718 5723 5728 5734 5740 5746 5752 5757 5763 5770 5776 5783 5789 5796 5802 5808 5813 5819 5824 5829 5833 5838 5842 5846 5850 5854 5857 5861 5864 5866 5869 5872 5875
5680 5685 5690 5695 5700 5706 5711 5717 5723 5729 5735 5742 5748 5754 5761 5767 5774 5780 5787 5793 5800 5805 5811 5817 5822 5827 5831 5836 5840 5844 5848 5852 5855 5858 5861 5864 5866 5869
5665 5670 5675 5681 5687 5693 5699 5705 5712 5718 5725 5731 5738 5744 5751 5758 5765 5771 5778 5785 5791 5798 5804 5809 5815 5820 5824 5829 5834 5838 5842 5846 5849 5853 5855 5858 5861 5864
5651 5656 5661 5667 5674 5680 5686 5693 5700 5707 5713 5720 5727 5734 5741 5748 5755 5762 5769 5776 5783 5789 5796 5802 5807 5812 5817 5822 5827 5832 5836 5840 5844 5847 5850 5853 5856 5858
5638 5642 5648 5654 5660 5667 5674 5681 5688 5695 5702 5709 5717 5724 5731 5738 5745 5753 5760 5767 5775 5782 5787 5793 5799 5805 5810 5815 5820 5825 5830 5834 5838 5842 5845 5848 5850 5853
5625 5630 5635 5640 5647 5654 5661 5668 5676 5683 5691 5698 5706 5713 5721 5728 5736 5743 5751 5758 5765 5772 5778 5785 5791 5797 5802 5808 5813 5818 5823 5827 5831 5835 5839 5842 5844 5847
5614 5618 5623 5628 5634 5641 5649 5656 5664 5671 5679 5687 5695 5702 5709 5717 5725 5733 5741 5748 5755 5762 5769 5776 5782 5788 5794 5800 5805 5810 5815 5820 5824 5828 5832 5835 5838 5841
5604 5608 5612 5617 5623 5629 5637 5644 5652 5659 5666 5674 5682 5690 5698 5706 5714 5722 5730 5737 5745 5752 5759 5767 5773 5779 5785 5791 5797 5802 5807 5812 5816 5820 5825 5828 5832 5835
5596 5599 5603 5607 5612 5617 5625 5632 5639 5647 5655 5663 5671 5679 5687 5695 5703 5711 5719 5727 5734 5742 5749 5757 5764 5770 5776 5782 5788 5793 5799 5804 5808 5813 5817 5821 5824 5828
5588 5590 5594 5598 5603 5608 5615 5622 5628 5635 5643 5651 5659 5667 5675 5683 5691 5700 5708 5716 5724 5732 5739 5746 5753 5760 5767 5773 5778 5784 5790 5795 5800 5804 5809 5812 5816 5819
5581 5584 5586 5590 5595 5600 5606 5612 5619 5626 5633 5640 5648 5656 5664 5671 5679 5687 5696 5704 5712 5720 5728 5735 5743 5749 5756 5763 5769 5774 5780 5786 5791 5796 5800 5804 5808 5811
5576 5578 5581 5584 5589 5594 5599 5605 5611 5617 5623 5630 5638 5645 5653 5660 5668 5676 5684 5692 5701 5709 5716 5724 5732 5738 5745 5752 5758 5764 5770 5775 5780 5786 5790 5795 5799 5802
5573 5575 5577 5580 5584 5588 5593 5597 5603 5609 5614 5621 5627 5635 5642 5649 5657 5665 5673 5681 5689 5697 5705 5713 5720 5727 5734 5741 5747 5753 5759 5765 5770 5775 5780 5785 5789 5792
5572 5573 5575 5577 5580 5583 5587 5591 5596 5601 5606 5612 5618 5625 5632 5639 5646 5654 5662 5670 5678 5686 5693 5701 5708 5715 5722 5729 5736 5742 5748 5754 5760 5765 5770 5774 5778 5782
5572 5572 5573 5575 5577 5580 5583 5586 5590 5594 5598 5603 5609 5615 5622 5629 5636 5643 5651 5659 5667 5674 5681 5689 5697 5704 5712 5719 5726 5732 5738 5743 5749 5754 5759 5764 5768 5771
5571 5571 5571 5572 5574 5576 5578 5581 5584 5588 5592 5596 5601 5607 5613 5619 5626 5633 5641 5648 5656 5663 5670 5678 5686 5693 5701 5709 5715 5721 5727 5732 5737 5743 5748 5753 5757 5761
5571 5570 5570 5570 5571 5573 5574 5576 5579 5582 5585 5589 5593 5598 5604 5610 5616 5623 5630 5638 5645 5652 5660 5667 5675 5683 5691 5697 5703 5709 5715 5721 5726 5732 5737 5741 5745 5749
5571 5570 5569 5569 5569 5570 5571 5572 5574 5576 5579 5582 5586 5591 5596 5601 5607 5614 5620 5627 5635 5642 5650 5658 5665 5672 5678 5685 5692 5698 5704 5710 5716 5721 5726 5731 5734 5739
5571 5569 5569 5568 5567 5567 5567 5568 5570 5571 5573 5576 5580 5584 5589 5594 5599 5605 5611 5618 5625 5632 5640 5646 5653 5661 5668 5675 5682 5687 5693 5699 5705 5710 5715 5720 5724 5728
5571 5569 5568 5567 5566 5565 5565 5565 5566 5567 5569 5571 5574 5577 5582 5587 5592 5597 5603 5609 5615 5622 5629 5636 5644 5651 5658 5665 5671 5677 5683 5688 5694 5699 5704 5709 5714 5718